Date,TemperatureHighF,TemperatureAvgF,TemperatureLowF,DewpointHighF,DewpointAvgF,DewpointLowF,HumidityHigh,HumidityAvg,HumidityLow,PressureMaxIn,PressureMinIn,WindSpeedMaxMPH,WindSpeedAvgMPH,GustSpeedMaxMPH,PrecipitationSumIn
2013-7-1,74,60,55,61,52,46,81,73,58,30.04,29.95,5,0,9,0.00
2013-7-2,74,68,59,60,55,52,84,65,52,30.07,30.02,6,0,12,0.02
2013-7-3,85,67,56,69,59,51,86,77,58,30.07,29.99,1,0,2,0.14
2013-7-4,82,72,62,70,63,58,96,74,55,30.08,30.02,3,0,7,0.12
2013-7-5,86,73,65,70,63,59,84,71,54,30.07,30.00,1,0,1,0.00
2013-7-6,89,78,67,72,67,61,87,71,52,30.05,29.94,1,0,3,0.00
2013-7-7,83,75,70,73,68,66,89,80,67,29.98,29.90,2,0,7,0.18
2013-7-8,81,75,71,75,68,-100,88,83,73,29.96,29.91,2,0,7,0.04
2013-7-9,89,77,69,75,70,66,96,81,61,29.94,29.80,2,0,5,0.06
2013-7-10,87,75,64,76,63,-100,96,72,51,29.92,29.72,8,1,13,0.06
2013-7-11,79,67,56,62,57,51,87,71,52,30.05,29.92,3,0,9,0.00
2013-7-12,83,67,52,65,56,47,89,71,48,30.15,30.06,3,0,3,0.00
2013-7-13,88,75,58,66,60,54,88,62,40,30.18,30.11,3,0,8,0.00
2013-7-14,91,75,62,73,65,57,86,72,54,30.23,30.18,0,0,1,0.00
2013-7-15,97,82,71,76,70,66,85,70,49,30.26,30.18,2,0,0,0.00
2013-7-16,97,87,74,78,74,70,88,67,52,30.26,30.18,2,0,7,0.00
2013-7-17,99,86,74,79,74,68,85,68,51,30.22,30.10,10,0,20,0.00
2013-7-18,98,86,73,79,73,68,85,67,48,30.11,29.88,6,1,9,0.00
2013-7-19,93,83,79,76,73,70,80,72,57,29.89,29.74,8,2,13,0.00
2013-7-20,89,76,66,67,60,-100,71,60,42,29.93,29.81,5,0,7,0.02
2013-7-21,86,68,56,62,55,49,78,64,44,29.99,29.91,0,0,0,0.00
2013-7-22,87,73,65,70,62,56,77,68,55,29.94,29.72,7,0,8,0.00
2013-7-23,81,71,61,70,61,49,85,72,51,29.87,29.64,13,2,15,0.00
2013-7-24,74,66,53,55,50,45,80,58,44,30.02,29.87,6,0,8,0.00
2013-7-25,82,65,50,59,51,45,87,63,40,30.07,30.01,2,0,8,0.00
2013-7-26,82,68,60,64,57,49,85,69,53,30.04,29.86,2,0,7,0.10
2013-7-27,82,68,57,68,60,49,88,78,56,29.86,29.70,6,0,9,0.49
2013-7-28,70,59,50,59,52,44,85,76,61,29.91,29.77,5,0,9,0.04
2013-7-29,75,66,58,61,57,53,88,71,59,30.11,29.89,3,0,6,0.02
2013-7-30,81,64,50,62,54,46,89,70,49,30.18,30.07,0,0,0,0.00
2013-7-31,66,64,62,65,60,56,96,87,76,30.07,29.86,1,0,2,0.77